Location: Asheville, NC
(35.6000°N, 82.5500°W)
Time: 07:10:45
(UTC-04:00)

Vanguard 2 - Pass Details

Date: 15 February 2018
Orbit: 552 x 2940 km, 32.9° (Epoch: 20 May)

Event Time Altitude Azimuth Distance (km) Brightness Sun altitude
Rises 00:40:52 0° 271° (W) 2,797 - -67.1°
Reaches altitude 10° 00:43:27 10° 256° (WSW) 1,825 - -67.1°
Maximum altitude 00:46:41 24° 201° (SSW) 1,166 - -67.1°
Drops below altitude 10° 00:50:08 10° 146° (SE) 1,948 - -67.0°
Sets 00:53:00 0° 132° (SE) 3,041 - -67.0°
